Location: Jackson Park
(37.2862°N, 79.9123°W)
Time: 23:17:09
(UTC+00:00)

Transit 4A - Pass Details

Date: 18 May 2026
Orbit: 861 x 980 km, 66.8° (Epoch: 5 June)

Event Time Altitude Azimuth Distance (km) Brightness Sun altitude
Rises 12:29:20 0° 212° (SSW) 3,523 10.6 26.0°
Reaches altitude 10° 12:31:48 10° 214° (SW) 2,602 10.0 26.5°
Maximum altitude 12:37:51 72° 299° (WNW) 986 8.3 27.7°
Drops below altitude 10° 12:44:09 10° 24° (NNE) 2,697 10.8 29.0°
Sets 12:46:46 0° 26° (NNE) 3,660 11.4 29.5°
